This demonstration page uses our WeatherBlox Daily Observations layout. Learn more.

Hourly Observations for January 19, 2021

Temp ( °F °C ) Dew Point ( °F °C ) Humidity (%) Winds ( mph kmh ) Pressure ( in mb ) Visibility ( mi km ) Precip ( " mm )
12:53 am 00:53 Clear 17 -8.3 12 -11.1 80 80 WNW 12 19 30.37 1028 10 16.0934 0 0
1:53 am 01:53 Clear 17 -8.3 11 -11.7 77 77 NW 10 17 30.39 1029 10 16.0934 0 0
2:53 am 02:53 Clear 17 -8.3 11 -11.7 77 77 WNW 10 17 30.4 1029 10 16.0934 0 0
3:53 am 03:53 Clear 19 -7.2 12 -11.1 74 74 WNW 9 15 30.42 1030 10 16.0934 0 0
4:16 am 04:16 Mostly Cloudy 19 -7.2 13 -10.6 77 77 WNW 10 17 30.56 1035 10 16.0934 0 0
4:45 am 04:45 Cloudy 21 -6.1 15 -9.4 78 78 W 8 13 30.55 1035 10 16.0934 0 0
4:53 am 04:53 Cloudy 22 -5.6 16 -8.9 78 78 W 7 11 30.45 1031 10 16.0934 0 0
5:53 am 05:53 Cloudy 25 -3.9 18 -7.8 75 75 WNW 13 20 30.46 1032 10 16.0934 0 0
6:53 am 06:53 Cloudy 27 -2.8 18 -7.8 69 69 WNW 12 19 30.48 1032 10 16.0934 0 0
7:53 am 07:53 Mostly Sunny 28 -2.2 18 -7.8 66 66 W 14 22 30.49 1032 10 16.0934 0 0
8:53 am 08:53 Sunny 32 0 18 -7.8 56 56 WNW 16 26 30.5 1033 10 16.0934 0 0
9:53 am 09:53 Sunny 34 1.1 18 -7.8 52 52 WNW 15 24 30.51 1033 10 16.0934 0 0
10:53 am 10:53 Mostly Sunny 36 2.2 18 -7.8 48 48 NW 18 30 30.51 1033 10 16.0934 0 0
11:53 am 11:53 Sunny 38 3.3 16 -8.9 41 41 WNW 20 31 30.48 1032 10 16.0934 0 0
12:53 pm 12:53 Sunny 39 3.9 16 -8.9 39 39 WNW 10 17 30.45 1031 10 16.0934 0 0
1:53 pm 13:53 Sunny 40 4.4 15 -9.4 36 36 WNW 17 28 30.42 1030 10 16.0934 0 0
2:53 pm 14:53 Sunny 40 4.4 14 -10 35 35 WNW 14 22 30.41 1030 10 16.0934 0 0
3:53 pm 15:53 Sunny 39 3.9 12 -11.1 33 33 W 8 13 30.39 1029 10 16.0934 0 0
4:53 pm 16:53 Sunny 34 1.1 12 -11.1 40 40 W 3 6 30.37 1029 10 16.0934 0 0
5:53 pm 17:53 Clear 25 -3.9 10 -12.2 53 53 Calm 30.39 1029 10 16.0934 0 0
6:53 pm 18:53 Clear 24 -4.4 10 -12.2 55 55 S 8 13 30.36 1028 10 16.0934 0 0
7:53 pm 19:53 Clear 25 -3.9 10 -12.2 53 53 S 5 7 30.32 1027 10 16.0934 0 0
8:53 pm 20:53 Clear 27 -2.8 10 -12.2 49 49 Calm 30.27 1025 10 16.0934 0 0
9:53 pm 21:53 Clear 26 -3.3 12 -11.1 55 55 SSW 7 11 30.23 1024 10 16.0934 0 0
10:53 pm 22:53 Clear 31 -0.6 14 -10 49 49 SW 13 20 30.16 1022 10 16.0934 0 0
11:53 pm 23:53 Clear 19 -7.2 9 -12.8 65 65 N 6 9 30.14 1021 10 16.0934 0 0

Powered by AerisWeather